Kezdőlap
METAR-TAF:

METAR-TAF

Repülőterek :

Rand Airport

Germiston, Dél-afrikai Köztársaság

földrajzi szélesség: 26-14-33S, földrajzi hosszúság: 028-09-04E, magasság: 1671 m

Jelenlegi meteorológiai megfigyelések

A jelentés 7 órával és 38 perccel ezelõtt készült, 17:00 UTC
Nyugat-északnyugati szél 9 kt
Hőmérséklet 16°C
Páratartalom 29%
Légköri nyomás 1031 hPa
Látótávolság 10 km, vagy több
felhőtlen 1500 m magasságban, és nincs gomolyfelhõ

METAR: FAGM 221700Z 30009KT CAVOK 16/M02 Q1031

Idő: 02:38 (00:38 UTC)


TAF: hiányzik

Meteorológiai megfigyelések és előrejelzések több, mint 4000 repülőtéren (METAR és TAF jelentéseket).

A térképen piros és sárga pontok jelzik az elérhető meteorológiai állomásokat.

Mozgassa az egeret a pont fölött, hogy megjelenjen az állomás neve.

Azután kattintson az időjárási megfigyelések és előrejelzések megtekintéséhez.

A térkép megváltoztatása: kattintson a fekete keresztel jelölt zöld gombra ráközelítéshez, a vonallal jelölt zöld gombra távolításhoz, vagy a zöld nyilakra a szomszédos térképek eléréséhez.


METAR-TAF: